Location: Unspecified
(41.1637°N, 24.2901°E)
Time: 21:06:45
(UTC+01:00)

ARIANE 6 FM1 Upper Stage - Pass Details

Date: 22 January 2026
Orbit: 522 x 609 km, 62.0° (Epoch: 11 February)

Event Time Altitude Azimuth Distance (km) Brightness Sun altitude
Rises 16:54:24 0° 175° (S) 2,722 6.4 -5.6°
Reaches altitude 10° 16:57:19 10° 153° (SSE) 1,814 5.2 -6.1°
Maximum altitude 16:59:50 16° 115° (ESE) 1,456 4.4 -6.5°
Drops below altitude 10° 17:02:21 10° 76° (ENE) 1,794 4.6 -7.0°
Enters shadow 17:02:42 - 72° (ENE) 1,887 4.6 -7.0°
